RH
96 97 96 97 95 92 78 69 66 67 70 75 77 63 48 47 47 46 47 43 38 32 26 23 19 22 28 16 23 38 68 72 48 34 44 53 59 42 25 43 62 58 56
97 90 95 95 91 77 74 70 65 62 57 58 56 52 50 48 55 50 48 44 39 35 33 29 25 23 26 20 15 30 57 38 40 27 22 15 27 47 27 32 56 79 66
96 95 96 82 86 91 86 69 53 54 48 48 58 54 43 35 34 31 32 38 39 42 32 29 29 29 26 30 14 21 35 54 25 23 14 12 11 25 49 35 45 72 95
95 94 94 87 82 89 94 81 70 72 75 76 80 70 68 67 62 54 49 42 44 41 29 28 30 28 28 28 32 11 31 25 46 34 19 14 12 12 60 57 42 86 89
88 85 88 76 64 79 81 79 56 53 52 47 45 51 56 59 61 55 56 62 63 62 59 54 42 22 22 27 31 32 12 29 30 14 12 13 14 13 20 74 66 87 88
58 67 57 55 46 37 25 23 25 29 27 25 25 29 32 32 31 32 37 40 42 46 47 50 53 54 48 24 23 33 32 15 22 29 25 16 12 14 13 12 19 52 58
30 30 37 36 29 18 13 11 10 9 9 9 9 9 9 9 9 10 11 12 15 18 20 23 26 35 45 52 46 22 31 33 27 12 18 23 21 12 12 12 12 12 10
25 28 28 26 24 22 20 20 19 17 14 12 11 10 10 9 9 9 9 9 10 11 11 10 8 8 11 14 30 52 42 29 34 32 17 8 18 20 15 10 18 14 14
12 12 9 8 7 6 5 5 4 4 4 3 3 3 3 3 3 3 3 3 2 2 2 2 4 7 10 9 7 10 22 47 39 34 34 26 10 6 9 10 25 19 17
6 6 5 4 3 3 2 2 2 2 2 2 2 2 2 2 2 2 2 2 2 2 2 2 2 2 2 2 3 9 8 8 13 36 40 36 33 19 7 5 17 30 26
3 3 2 2 2 2 2 2 2 2 2 3 3 3 3 3 3 3 3 3 3 3 2 3 3 2 2 2 2 2 3 5 9 7 10 38 41 40 28 15 6 14 37
3 3 4 4 4 4 5 6 7 8 8 9 10 11 12 13 13 13 12 11 9 7 5 4 3 3 3 3 3 3 2 3 5 7 10 6 16 42 48 44 26 10 14
4 5 6 6 7 8 8 9 10 13 16 16 15 15 14 13 12 12 13 13 13 13 13 13 13 11 7 4 3 3 3 3 2 4 8 8 10 6 26 50 48 45 25
5 6 7 7 8 10 12 15 17 17 17 17 16 15 13 11 10 11 11 11 13 14 13 13 13 12 13 16 13 6 4 4 4 3 3 6 9 10 9 8 36 51 49
7 8 10 12 14 16 18 18 16 16 16 13 9 8 9 10 9 9 8 8 8 8 8 8 9 10 11 12 13 15 17 9 5 4 4 3 3 8 9 12 9 10 37
14 16 19 21 22 21 19 18 16 12 9 8 9 10 10 10 9 9 9 9 8 8 8 8 7 7 7 7 8 10 15 18 20 10 5 4 4 3 5 8 12 13 9
21 20 21 21 18 15 12 10 9 9 10 11 12 12 12 10 10 11 11 11 11 10 10 10 10 10 9 8 8 7 8 14 22 25 23 9 5 4 4 4 5 13 21
21 22 21 17 15 12 10 10 10 10 10 12 13 14 15 16 15 14 14 13 12 11 11 10 9 9 8 8 9 8 8 9 16 27 34 34 19 7 5 5 5 5 11
24 19 17 17 14 14 12 11 10 10 10 11 13 15 16 15 14 11 9 8 9 10 9 10 10 9 10 10 10 10 10 10 11 22 35 46 43 30 12 6 6 6 5
22 19 20 17 14 12 11 11 11 12 13 15 16 17 17 14 12 12 13 11 11 13 15 15 13 13 12 12 12 12 14 17 17 17 31 47 60 52 38 16 8 8 8
22 22 20 15 14 13 12 13 16 18 17 17 16 16 11 8 7 9 9 11 12 13 14 15 14 15 16 14 13 14 14 16 21 23 24 37 56 73 62 39 17 10 10
25 22 17 16 16 16 18 20 22 22 20 19 20 17 13 13 12 12 11 13 14 15 16 16 16 16 16 17 16 15 14 17 17 21 32 32 39 59 82 76 42 18 12
25 20 18 19 19 18 20 22 21 18 17 17 21 21 20 16 16 16 18 20 22 22 23 23 22 21 19 19 23 23 19 16 15 20 26 32 35 46 60 80 90 54 22
27 22 19 19 21 22 23 21 18 18 22 23 21 23 27 25 24 26 29 30 30 29 28 26 24 22 20 21 30 33 29 23 17 15 21 32 40 41 44 63 87 98 76
27 22 23 25 25 24 22 23 25 26 23 20 18 19 22 26 29 32 36 37 34 29 28 26 24 27 34 35 34 35 36 37 32 24 18 28 35 42 46 56 72 94 99
29 27 26 26 26 28 29 29 28 28 27 28 26 24 25 30 34 38 41 35 30 28 25 23 28 37 41 39 37 35 33 32 35 34 29 27 32 37 35 29 56 79 97
Wind_Speed
8 7 11 11 6 5 7 4 5 5 5 3 2 2 1 1 2 2 3 4 4 5 6 6 7 6 7 8 8 9 1 4 6 6 6 5 5 6 6 6 6 6 8
14 10 9 10 9 7 6 5 5 4 3 3 4 5 5 5 5 5 6 7 6 6 6 6 6 5 5 7 7 7 3 5 7 6 7 6 7 8 7 7 7 8 11
12 11 9 5 6 5 5 2 1 1 1 2 3 4 5 6 7 8 8 8 7 8 8 7 7 9 8 6 7 6 4 7 7 7 8 9 9 9 8 8 7 9 13
12 10 7 6 6 6 6 4 3 1 2 5 7 6 6 7 8 10 11 12 12 11 11 11 11 10 10 10 8 7 6 4 8 10 11 10 11 11 11 9 7 8 6
11 11 7 7 6 7 8 4 5 6 7 9 8 8 9 9 10 11 12 13 15 16 15 14 13 12 12 12 12 11 10 10 10 11 12 13 13 13 13 12 11 12 9
6 6 5 5 3 4 6 6 7 6 7 9 10 10 11 12 12 13 13 13 14 16 18 18 18 16 14 14 15 14 14 14 15 16 16 16 16 16 14 14 14 13 14
3 3 4 4 4 5 6 7 7 7 7 8 8 9 10 11 12 13 14 15 15 16 17 19 19 19 18 18 17 18 18 18 18 19 20 20 19 18 18 18 17 15 15
4 3 4 3 4 5 6 6 7 8 9 9 10 11 12 12 12 13 14 14 15 16 17 18 18 20 21 21 20 20 21 22 21 23 22 22 23 23 23 22 21 20 18
1 1 2 3 4 5 6 6 7 8 10 11 11 12 14 15 15 16 16 17 17 16 16 16 17 19 20 20 21 23 24 25 25 26 27 27 25 26 27 28 25 24 22
2 3 3 4 3 3 4 6 8 10 11 13 14 15 16 17 17 18 19 20 21 21 21 22 22 21 20 19 20 23 24 28 29 30 30 31 31 29 29 31 31 28 27
2 2 3 3 5 6 7 10 11 12 14 16 18 19 21 23 24 25 26 27 27 27 27 27 28 28 28 28 26 23 23 25 29 32 34 35 34 35 34 34 34 33 32
3 4 5 6 7 9 11 13 15 16 18 19 21 23 25 27 28 29 30 31 32 33 34 35 35 35 35 34 34 33 32 29 28 31 34 36 39 39 38 39 38 37 36
6 7 9 11 13 14 15 17 19 21 23 26 27 28 31 32 34 35 36 36 37 38 39 40 41 41 41 41 40 40 39 38 36 35 35 36 38 40 43 42 42 42 40
11 13 14 16 18 19 21 22 24 26 27 29 32 34 36 37 39 41 42 43 43 42 42 44 45 46 47 47 47 47 46 45 44 42 40 41 40 41 42 45 46 45 44
17 19 20 22 23 24 25 26 27 29 32 33 34 38 40 42 43 43 45 45 46 46 47 48 49 50 51 52 52 53 53 52 52 50 48 46 46 45 43 45 45 48 48
20 21 22 24 26 28 29 30 31 32 33 35 39 41 43 45 45 47 49 50 52 53 53 53 54 55 55 55 57 57 58 58 58 57 56 53 52 50 50 48 47 48 48
21 23 26 28 29 29 29 29 30 32 36 40 43 45 46 47 49 51 53 55 57 58 59 60 59 59 58 59 58 59 61 62 63 62 63 62 58 58 56 55 54 52 51
25 28 30 29 29 31 31 33 36 39 43 46 49 51 53 55 56 58 60 62 64 66 67 67 67 68 67 65 63 62 63 64 66 67 66 67 67 65 63 62 60 59 57
28 30 30 32 34 35 37 38 41 45 48 51 53 56 57 59 60 63 65 67 68 69 72 73 73 71 67 65 64 64 64 66 68 71 70 70 70 72 70 68 67 65 63
30 29 33 35 37 39 40 43 47 51 53 55 59 60 61 63 66 69 71 72 75 78 79 79 76 74 75 73 69 69 66 67 69 70 73 75 75 75 75 73 71 70 68
32 35 38 40 41 42 45 49 52 55 58 60 61 62 63 68 73 76 76 79 82 84 86 86 85 82 78 79 78 73 68 68 70 73 75 77 78 79 78 77 74 73 72
35 38 40 42 43 46 50 53 57 59 61 63 65 65 68 72 77 79 81 84 87 88 91 91 92 92 89 84 81 79 75 70 72 72 75 77 78 80 82 82 79 76 74
39 41 44 46 48 52 55 58 60 60 63 67 70 73 75 78 80 83 86 88 90 92 93 90 87 85 85 80 79 79 77 75 73 74 73 73 74 79 81 82 84 81 78
43 46 49 51 53 56 58 60 61 63 65 69 72 76 80 83 87 92 93 94 95 93 89 87 84 82 81 81 80 82 83 83 81 77 74 70 70 74 79 80 84 86 84
48 50 52 54 57 58 60 62 64 67 69 72 76 79 84 88 92 96 97 95 91 87 83 82 81 82 82 81 82 83 84 84 85 83 77 74 72 72 74 78 82 85 88
50 52 53 56 59 60 63 65 69 73 75 76 79 81 86 90 93 96 95 88 83 82 82 83 84 84 82 84 84 85 86 87 87 87 85 81 77 74 76 76 77 82 86
Wind_Direction
185 181 207 218 173 126 86 85 74 71 72 72 76 323 282 230 224 263 292 303 322 335 345 355 6 353 336 338 353 7 316 188 204 201 215 229 220 220 220 224 229 231 219
177 169 178 166 136 116 107 95 105 119 142 179 196 225 254 271 275 281 288 293 296 295 300 314 324 335 325 324 330 348 339 222 215 225 237 223 222 230 220 221 236 233 212
169 160 164 148 119 107 93 92 299 170 201 265 250 241 255 268 279 282 283 285 287 290 291 293 300 312 317 302 312 311 329 233 224 239 244 247 234 228 227 225 229 241 257
172 164 148 137 146 134 134 160 174 260 303 289 274 275 286 290 291 293 297 298 296 292 288 289 292 292 295 300 289 287 271 259 233 240 259 254 253 237 232 233 228 221 260
172 169 158 153 180 176 182 208 234 243 257 275 284 290 293 294 296 293 290 291 293 295 293 290 283 279 279 278 280 274 266 255 250 254 258 262 260 253 245 241 229 225 230
156 166 195 233 274 286 276 272 270 268 279 290 297 299 297 299 300 301 300 296 294 293 293 293 292 288 280 276 270 266 263 261 253 251 255 259 262 262 254 250 245 235 227
179 207 236 245 267 269 281 288 291 302 303 302 303 302 302 304 306 306 303 300 296 292 290 292 293 292 289 282 276 271 263 257 257 255 254 252 257 260 259 256 250 242 236
172 185 212 235 256 265 272 287 300 306 306 309 313 312 310 310 310 308 307 306 305 303 301 299 296 291 287 285 280 273 270 266 259 256 256 253 253 253 257 255 252 249 244
160 248 264 265 276 297 317 310 312 315 318 318 321 321 318 317 316 314 312 310 307 306 306 303 299 296 292 289 285 278 273 268 267 261 258 256 253 252 250 251 250 248 245
274 274 287 275 277 317 324 324 323 323 321 320 320 317 315 311 311 309 309 308 308 307 305 303 301 295 291 288 287 283 280 275 270 265 263 260 259 254 252 252 250 246 246
286 297 262 254 272 287 300 301 303 307 310 312 312 312 311 310 310 309 308 307 305 303 300 299 298 296 297 294 286 275 272 275 275 272 265 261 260 260 257 254 254 252 245
294 300 308 305 301 307 306 304 306 309 309 307 306 307 307 307 306 304 303 302 300 299 298 297 295 294 293 291 289 288 284 272 263 267 270 266 260 258 258 258 256 254 251
287 293 293 292 293 295 294 296 301 306 311 311 310 310 307 306 305 302 300 298 297 296 295 293 292 291 290 288 286 286 284 282 278 268 260 263 265 261 257 256 256 255 255
291 292 293 294 297 299 303 307 308 308 308 308 307 305 303 301 298 295 292 289 287 286 287 288 288 287 286 285 283 282 281 279 277 275 271 264 257 258 260 257 255 255 254
296 300 302 303 302 301 300 301 302 303 303 303 302 299 296 295 295 294 293 293 294 294 293 292 289 288 286 284 281 280 279 277 276 274 271 268 265 258 253 255 257 255 254
292 295 298 300 303 304 302 301 302 303 304 303 302 302 302 302 302 301 302 303 303 301 299 297 294 293 289 287 284 280 275 274 273 272 270 267 264 261 259 252 250 252 254
288 292 296 299 301 298 298 300 301 302 303 304 305 307 307 306 305 305 305 304 304 303 302 302 300 297 292 288 283 278 276 272 269 268 268 267 264 261 257 257 254 249 248
288 294 298 301 301 300 299 299 300 301 303 305 308 309 309 308 307 305 305 305 305 304 303 301 298 297 293 289 285 280 274 271 268 266 264 264 263 261 258 255 253 252 248
290 296 302 305 302 298 294 296 298 300 301 303 305 306 306 305 304 304 302 301 300 300 297 295 293 291 289 287 285 279 274 269 266 265 264 261 259 259 258 255 252 250 249
291 295 300 298 296 295 295 296 299 302 303 304 304 303 302 303 303 303 302 301 298 298 298 298 296 294 293 290 287 284 277 272 267 265 263 261 258 256 255 254 252 250 247
289 291 295 296 297 296 296 298 301 301 300 299 298 297 299 300 300 300 299 299 298 300 300 300 299 297 295 292 291 287 282 275 269 266 262 260 258 257 255 253 251 249 247
288 291 293 294 295 297 299 299 300 300 299 298 298 298 297 298 297 297 296 297 300 301 301 300 299 297 297 295 292 289 283 272 268 265 262 261 258 257 257 254 251 248 246
288 289 290 294 296 296 295 296 297 297 297 299 300 300 300 299 299 299 299 299 299 299 298 298 297 297 294 290 285 281 276 272 264 262 264 262 260 257 256 254 252 249 246
288 288 289 291 292 293 293 293 294 296 298 300 300 301 301 301 301 302 302 300 299 298 298 298 296 293 290 286 281 278 277 274 268 263 262 261 261 259 256 254 251 250 246
285 286 289 291 291 291 291 294 297 298 297 298 299 299 300 301 301 301 300 299 299 299 299 297 293 289 287 284 281 278 276 275 274 269 262 261 260 257 256 254 251 248 249
285 287 289 290 292 293 296 298 297 298 298 299 299 299 299 299 299 298 298 299 299 298 297 293 289 286 285 284 283 280 277 275 272 271 268 264 260 253 253 254 252 250 247